[[{"header":{"parameterUnit":"m.s-1","parameterCategory":1,"la1":30.2992,"la2":30.254,"lo1":-89.0895,"lo2":-89.0443,"dy":0.0025,"dx":0.0025,"nx":19,"ny":19,"refTime":"2026-05-16T09:00:00:Z","depth":0,"parameterNumber":2,"parameterNumberName":"U-component_of_WINDS"},"data":[0,0,0,-0.7691,-0.7691,-0.7684,-0.7684,-0.7678,-0.7678,0,0,0,0,0,0,0,0,0,0,0,-0.7695,-0.7695,-0.7691,-0.7691,-0.7684,-0.7684,-0.7678,-0.7678,0,0,0,0,0,0,0,0,0,0,0,-0.7695,-0.7695,-0.7695,-0.7691,-0.7684,-0.7684,-0.7678,-0.7682,0,0,0,0,0,0,0,0,0,0,-0.7689,-0.7693,-0.7695,-0.7695,-0.7691,-0.7684,-0.7684,-0.7682,-0.7682,-0.7682,0,-0.7682,0,-0.768,-0.7677,-0.7677,0,0,0,-0.769,-0.7693,-0.769,-0.7695,-0.7691,-0.7684,-0.7687,-0.7682,-0.7682,-0.7681,-0.7682,-0.7682,-0.768,-0.7677,-0.7677,-0.7681,-0.7681,0,0,-0.7691,-0.7694,-0.7691,-0.769,-0.7691,-0.7687,-0.7687,-0.7682,-0.7683,-0.7682,-0.7682,-0.768,-0.7677,-0.7677,-0.7681,-0.7681,0,0,0,-0.7692,-0.7695,-0.7692,-0.769,-0.7689,-0.7687,-0.7687,-0.7683,-0.7682,-0.7681,-0.768,-0.7677,-0.7677,-0.7681,-0.7681,-0.7688,0,0,0,-0.7693,-0.7696,-0.7692,-0.7694,-0.7689,-0.7686,-0.7688,-0.7682,-0.7681,-0.768,-0.7677,-0.7677,-0.7681,-0.7681,-0.7688,-0.769,0,0,0,-0.7695,-0.7696,-0.7695,-0.7694,-0.7691,-0.7686,-0.7684,-0.7682,-0.768,-0.7677,-0.7677,-0.7681,-0.7681,-0.7687,-0.769,-0.7693,0,0,0,-0.7698,-0.7701,-0.7695,-0.7698,-0.7691,-0.769,-0.7684,-0.7683,-0.7681,-0.7677,-0.7681,-0.7681,-0.7687,-0.769,-0.7692,-0.7696,-0.7697,0,0,-0.7704,-0.7702,-0.7703,-0.7698,-0.7699,-0.7691,-0.7693,-0.7688,-0.7684,-0.7682,-0.7682,-0.7688,-0.769,-0.7693,-0.7706,-0.7707,0,0,0,-0.7706,-0.7707,-0.7707,-0.7706,-0.7702,-0.7699,-0.7694,-0.7692,-0.7691,-0.7684,-0.7689,-0.7691,-0.7692,-0.7693,-0.7695,-0.7696,-0.7682,-0.7682,-0.7682,-0.7719,-0.7715,-0.7717,-0.7712,-0.7711,-0.7706,-0.7704,-0.7701,-0.7697,-0.7698,-0.7697,-0.7706,-0.7708,-0.7709,-0.771,-0.7699,-0.7699,-0.7699,-0.7699,-0.7728,-0.7728,-0.7723,-0.7723,-0.7719,-0.7719,-0.7714,-0.7711,-0.7711,-0.7706,-0.7707,-0.7702,-0.771,-0.7711,-0.77,-0.7699,-0.7699,-0.7699,-0.7699,-0.7736,-0.7735,-0.7733,-0.7732,-0.7731,-0.7726,-0.7726,-0.7722,-0.7718,-0.7719,-0.7718,-0.7718,-0.7717,-0.7719,-0.7719,-0.7719,-0.7719,-0.7719,-0.7719,-0.7745,-0.7742,-0.7743,-0.774,-0.7739,-0.7737,-0.7732,-0.7731,-0.7729,-0.7726,-0.7726,-0.7721,-0.7712,-0.771,-0.7719,-0.7719,-0.7719,-0.7719,-0.7719,-0.7754,-0.7752,-0.7752,-0.7751,-0.7748,-0.7748,-0.7743,-0.7741,-0.7739,-0.774,-0.7735,-0.7729,-0.7727,-0.7726,-0.7724,-0.7736,-0.7736,-0.7736,-0.7736,-0.7761,-0.776,-0.776,-0.7759,-0.7757,-0.7753,-0.7754,-0.7751,-0.7747,-0.7746,-0.7743,-0.774,-0.774,-0.7738,-0.7736,-0.7734,-0.7749,-0.7749,-0.7749,-0.7767,-0.7765,-0.7767,-0.7763,-0.776,-0.7758,-0.7759,-0.7759,-0.7753,-0.775,-0.7745,-0.7744,-0.7739,-0.7738,-0.7734,-0.7732,-0.7728,0,0]},{"header":{"parameterUnit":"m.s-1","parameterCategory":1,"la1":30.2992,"la2":30.254,"lo1":-89.0895,"lo2":-89.0443,"dy":0.0025,"dx":0.0025,"nx":19,"ny":19,"refTime":"2026-05-16T09:00:00:Z","depth":0,"parameterNumber":3,"parameterNumberName":"V-component_of_WINDS"},"data":[0,0,0,4.7108,4.711,4.7173,4.7173,4.727,4.7271,0,0,0,0,0,0,0,0,0,0,0,4.71,4.7101,4.7108,4.711,4.7173,4.7173,4.727,4.7271,0,0,0,0,0,0,0,0,0,0,0,4.71,4.7101,4.7102,4.711,4.7173,4.7173,4.727,4.7216,0,0,0,0,0,0,0,0,0,0,4.7151,4.7156,4.7101,4.7103,4.7111,4.7173,4.7173,4.7213,4.7219,4.7248,0,4.7279,0,4.7277,4.7279,4.7279,0,0,0,4.7101,4.7151,4.7158,4.7103,4.7111,4.7173,4.7142,4.7216,4.7223,4.7257,4.728,4.7283,4.7279,4.728,4.728,4.748,4.7482,0,0,4.7098,4.7118,4.7153,4.7163,4.7156,4.714,4.7144,4.722,4.7247,4.7281,4.7285,4.728,4.728,4.7281,4.7479,4.7481,0,0,0,4.7093,4.7116,4.712,4.7159,4.717,4.7142,4.7147,4.7243,4.7243,4.7286,4.7281,4.7281,4.7282,4.7478,4.748,4.7565,0,0,0,4.7091,4.7113,4.7119,4.7132,4.7169,4.7208,4.7169,4.7238,4.7246,4.7281,4.7281,4.7283,4.7476,4.7479,4.7559,4.7601,0,0,0,4.7092,4.7113,4.7126,4.7133,4.7161,4.7206,4.721,4.7239,4.7243,4.7279,4.7284,4.7475,4.7478,4.7554,4.7593,4.7659,0,0,0,4.7099,4.7202,4.7128,4.724,4.7161,4.7259,4.7209,4.7281,4.7322,4.7282,4.7476,4.7479,4.7553,4.7588,4.7654,4.7717,4.7745,0,0,4.724,4.722,4.7284,4.7219,4.7336,4.7248,4.7376,4.7394,4.7379,4.7447,4.7451,4.7561,4.7593,4.7658,4.7901,4.7923,0,0,0,4.7335,4.7381,4.7407,4.7448,4.7465,4.7482,4.7478,4.7485,4.7541,4.7419,4.7602,4.7621,4.7658,4.7687,4.7706,4.7736,4.7494,4.7494,4.7493,4.7562,4.7537,4.764,4.7622,4.7662,4.7657,4.7686,4.7693,4.7657,4.77,4.772,4.7871,4.7906,4.792,4.7951,4.7752,4.7753,4.7753,4.7753,4.7764,4.7824,4.7772,4.7854,4.7826,4.7894,4.7892,4.7863,4.7921,4.7854,4.7886,4.7814,4.7946,4.7972,4.7759,4.7758,4.7758,4.7757,4.7757,4.7909,4.7933,4.7939,4.7993,4.8038,4.8015,4.8073,4.8045,4.802,4.8051,4.8068,4.8066,4.806,4.8061,4.8062,4.8062,4.8063,4.8063,4.8063,4.8057,4.8061,4.8113,4.8138,4.8159,4.8183,4.8177,4.8197,4.8211,4.8186,4.8186,4.8144,4.7964,4.7919,4.8071,4.807,4.8069,4.8068,4.8068,4.8269,4.8216,4.8297,4.8318,4.8343,4.8388,4.8352,4.8393,4.8405,4.8434,4.8385,4.8257,4.8234,4.8218,4.818,4.8391,4.8391,4.8391,4.8391,4.8391,4.8376,4.8451,4.8486,4.8517,4.8492,4.8581,4.8577,4.8565,4.857,4.8535,4.8483,4.8469,4.8454,4.8433,4.8397,4.8659,4.8659,4.8659,4.8519,4.8506,4.8588,4.8575,4.8592,4.8607,4.869,4.873,4.8705,4.8669,4.8573,4.8562,4.8477,4.8451,4.8413,4.8381,4.8315,0,0]}]]